ONEWEB-0570 (55149 NORAD) Tracking and Keplerian Element Data

This shows tracking and keplerian element data for the satellite.

Feedback or suggestion? Click here.




ElementValue
Catalog55149
NameONEWEB-0570
Epoch Orbit130
Epoch Day13.91667824
Epoch Year2023
RAAN284.1399
Inclination86.5108
Eccentricity0.0011607
Argument of Perigee202.6441
Mean Anonmoly67.2614
Mean Motion14.91283454
Decay Rate-0.00048028
L11 55149U 23004K 23013.91667824 -.00048028 00000+0 -48621-2 0 9991
L22 55149 86.5108 284.1399 0011607 202.6441 67.2614 14.91283454 1305



Live tracking and technical data element details for ONEWEB-0570 (NORAD 55149). ONEWEB-0570 can be tracked NOW for your location showing map with azimuth and elevation plus other details from your city location.







IsCatalogInMostPopularTable: catalog: 55149, numindb: 3
Update: records affected: 1



GetName: 55149 ONEWEB-0570

Hit Count: updated at: Tue, 07 Feb 2023 15:02:37 GMT